Regional Weather Roundup
Issued by NWS Green Bay, WI

Home | Current Version | Previous Version | Graphics & Text | Print | Product List | Glossary Off
Versions: 1 2 3 4 5 6 7 8 9 10 11 12 13 14 15 16 17 18 19 20 21 22 23 24 25 26 27 28 29 30 31 32 33 34 35 36 37 38 39 40 41 42 43 44 45 46 47 48 49 50

000
ASUS43 KGRB 022111
RWRGRB

NORTH-CENTRAL AND NORTHEAST WISCONSIN REGIONAL WEATHER ROUNDUP
NATIONAL WEATHER SERVICE GREEN BAY WI
400 PM CDT SUN AUG 02 2015

WIZ005-009-010>012-018-019-022200-
NORTH CENTRAL WISCONSIN

CITY           SKY/WX    TMP DP  RH WIND       PRES   REMARKS
IRONWOOD       NOT AVBL
MANITOWISH WTR CLOUDY    72  58  61 NW16G22   29.65R
ARBOR VITAE    PTSUNNY   75  61  61 NW13G18   29.64S
EAGLE RIVER    NOT AVBL
LAND O LAKES   CLOUDY    73  57  57 NW6       29.63S
RHINELANDER    LGT RAIN  72  64  76 NW9       29.63F
PHILLIPS       NOT AVBL
ANTIGO         PTSUNNY   69  62  76 NW13      29.60F
TOMAHAWK       NOT AVBL
MERRILL        NOT AVBL
$$

WIZ013-073-022200-
NORTHEAST WISCONSIN

CITY           SKY/WX    TMP DP  RH WIND       PRES   REMARKS
IRON MOUNTAIN  NOT AVBL
MARINETTE      NOT AVBL
$$

WIZ017-030-035>037-045-022200-
CENTRAL WISCONSIN

CITY           SKY/WX    TMP DP  RH WIND       PRES   REMARKS
MEDFORD        MOSUNNY   71  65  80 NW9G17    29.64F
WAUSAU         LGT RAIN  76  62  62 N12G26    29.59R
MOSINEE        PTSUNNY   81  66  61 NW15G26   29.59F
MARSHFIELD     NOT AVBL
WISC RAPIDS    PTSUNNY   81  66  60 N9        29.60R
STEVENS POINT  CLOUDY    69  64  86 S5        29.60F
WAUPACA        NOT AVBL
SHAWANO        NOT AVBL
CLINTONVILLE   NOT AVBL
$$

WIZ038-039-048-051-022200-
FOX VALLEY

CITY           SKY/WX    TMP DP  RH WIND       PRES   REMARKS
NWS GREEN BAY  TSTM      65  63  93 NE23G29   29.55R FOG
APPLETON       PTSUNNY   88  63  42 SW20G30   29.51S
OSHKOSH        SUNNY     88  66  48 SW13G24   29.50S HX  90
FOND DU LAC    SUNNY     90  68  48 SW25G37   29.53F HX  94
$$

WIZ022-050-052-022200-
EAST CENTRAL WISCONSIN

CITY           SKY/WX    TMP DP  RH WIND       PRES   REMARKS
STURGEON BAY   CLOUDY    61  55  82 NE8       29.57F
MANITOWOC      NOT AVBL
SHEBOYGAN      SUNNY     90  68  48 SW29G39   29.52S HX  94
$$

LMZ563-521-522-541>543-022200-
LAKESHORE

STATION/POSITION TIME  TEMP    WIND        PRES    VSBY  WAVE
                       AIR SEA DIR/SP/G                  HT/PER
                 (UTC) (F)     (DEG/KT/KT) (MB)    (MI)  (FT/S)
SHEBOYGAN LKSHOR 2000   87     220/ 30/ 39  998.8F
KEWAUNEE LKSHORE 2000   68      40/ 11/ 22 1000.7R
ALGOMA MARINA    2012           30/ 16/ 24   N/A
NORTHPORT PIER   2000   68      90/ 12     1000.7F
N MID LAKE BUOY  1950   67 69  270/ 14/ 17 1005.2          2/ 5
CHAMBERS ISLAND  2000   65     100/  8/ 11 1001.4F
MENOMINEE LKSHOR 2000   61      30/ 10/ 12 1001.6F
$$


USA.gov is the U.S. government's official web portal to all federal, state and local government web resources and services.